Погода в Братолюбовке

Погода в Братолюбовке : погода сейчас, прогноз погоды и архив. Всё, что Вы хотите узнать о погоде в Братолюбовке!

Поиск расширенной информации на нашем сайте:

Другие новости

Новости СМИ2

Главная страница сайта

Новости сайта

03.07.2017

Напоминаем, что на нашем специализированном сайте Метеоцентр.Азия вы можете получить высокодетализированные автоматические прогнозы погоды по пунктам России, СНГ и мира в авиационном формате (включающие направление и скорость ветра, видимость, явления погоды, количество и форму облачности, нижнюю и верхнюю границу облачности).

Рекомендуем: Перфоратор оптом купить оптом перфоратор lad-rostov.ru.

Погода в Братолюбовке - сегодня

Время (UTC), дата Ветер
(°,м/с) 
Видим.   Явления Облачность Т
(°С)
Тd
(°С)
f(%) Тe
(°С)
Pmin
(гПа)
dP
(гПа)
Po
(мм)
O2
(г/м3)
Тmin Tmax R s Состояние
почвы
12 20.08.17 140 (ЮВ) 50000 м    9/0 средняя, верхняя 
[Ac lent|Ci sp]
+20.1 +17.5 85 +34  1008.1  0.1  736  272    +29       
15 20.08.17 130 (ЮВ) 50000 м    ясно 
+17.9 +16.3 90 +31  1007.7  -0.5  736  275           
18 20.08.17 100 (В) 50000 м    6/6 600 м 
[Sc]
+17.3 +16.1 93 +29  1006.8  -0.9  735  275           
21 20.08.17 130 (ЮВ) 20000 м    8/6 600 м средняя 
[Sc|Ac trans]
+18.4 +16.9 91 +32  1006.1  -0.6  735  274           
00 21.08.17 150 (ЮВ) 20000 м    8/4 600 м кучево-дожд., средняя 
[Cb cap|Ac cast]
+24.3 +18.5 70 +40  1004.7  -0.8  734  267  +16.2        сухая 
03 21.08.17 150 (ЮВ) 20000 м    6/3 600 м средняя 
[Cu Sc|Ac cast]
+27.4 +19 60 +45  1002.6  -1.8  733  264           
06 21.08.17 150 (ЮВ) 5-10{11}  20000 м    4/3 600 м кучево-дожд., верхняя 
[Cb cap|Ci fib]
+29 +17 48 +42  999.7  -2.7  731  262           
09 21.08.17 230 (ЮЗ) 2{13}  0800 м  гроза, ливневой дождь  10/10 600 м кучево-дожд. 
[Cb cap]
+18.4 +17.3 93 +33  1001.3  0.7  731  272           
12 21.08.17 280 (З) 8-16{15}  20000 м  гроза без осадков{ливн. осадки}  10/10 600 м кучево-дожд. 
[Cb cap]
+19.4 +16.7 84 +32  1000.6  -0.7  731  271    +29.2  17     
15 21.08.17 120 (ЮВ) 5{16}  8000 м  гроза, ливневой дождь  10/10 600 м кучево-дожд. 
[Cb cap]
+16.2 +15.5 96 +26  1000  -1  730  274           
18 21.08.17 180 (Ю) 15000 м  {гроза, ливн. осадки}  6/6 600 м кучево-дожд. 
[Cb cap]
+15.6 +14.7 94 +25  1000.8  0.7  731  275           
21 21.08.17 170 (Ю) 20000 м    10/10 600 м кучево-дожд. 
[Cb cap]
+15.7 +14.6 93 +25  1001.4  0.6  731  275           
00 22.08.17 210 (ЮЗ) 20000 м    ясно 
+19.4 +15.3 77 +30  1001.8  0.7  732  272  +14.9    18    влажная 
03 22.08.17 250 (З) 5-11{11}  25000 м    8/3 1000 м верхняя 
[Cu med, cong|Ci ing]
+22.6 +12.5 53 +28  1000.8  -0.7  731  270           
06 22.08.17 240 (ЮЗ) 3{11}  5000 м  мгла  10/5 600 м кучево-дожд., верхняя 
[Cb cap|Cs]
+23.7 +10.9 44 +27  1000.3  -0.4  731  269           
09 22.08.17 270 (З) 5{11}  5000 м  дым  8/4 600 м кучево-дожд., средняя 
[Cb cap|Ac cast]
+20.3 +11.8 58 +24  1002  1.4  732  272           
12 22.08.17 230 (ЮЗ) 2000 м  ливневой дождь  10/10 600 м кучево-дожд. 
[Cb cap]
+15.5 +13.7 89 +24  1003.8  1.3  733  277    +24.1     
15 22.08.17 200 (Ю) 5000 м  дымка{ливн. осадки}  10/10 600 м кучево-дожд. 
[Cb cap]
+14.8 +13.1 90 +22  1003.3  -0.6  732  277           
18 22.08.17 230 (ЮЗ) 5000 м  дымка{ливн. осадки}  ясно 
+13.7 +12.1 90 +20  1003.9  0.4  733  279           
21 22.08.17 230 (ЮЗ) 8000 м  дымка  1/0 средняя 
[Ac lent]
+13.2 +11.6 90 +18  1004.4  0.4  733  279           
00 23.08.17 250 (З) 2700 м  дымка  6/0 
+17.8 +13.3 75 +25  1004  0.1  733  275  +13.1    0.6    влажная 
03 23.08.17 240 (ЮЗ) 4200 м  дым  6/6 1000 м 
[Cu med, cong]
+21.4 +12.3 56 +26  1003.2  -0.4  733  271           
06 23.08.17 270 (З) 6000 м  дым  9/8 600 м кучево-дожд., верхняя 
[Cb cap|Cc]
+20.4 +12.5 60 +26  1003  -0.4  732  272           
09 23.08.17 тихо ()   6000 м  дым  9/9 600 м 
[Sc]
+19.1 +15.3 79 +29  1002.8  -0.2  732  273           
12 23.08.17 190 (Ю) 14000 м    8/8 600 м 
[Sc]
+15.4 +14.3 93 +25  1003.1  732  276    +22       
Время (UTC), дата Ветер
(°,м/с) 
Видим.   Явления Облачность Т
(°С)
Тd
(°С)
f(%) Тe
(°С)
Pmin
(гПа)
dP
(гПа)
Po
(мм)
O2
(г/м3)
Тmin Tmax R s Состояние
почвы

Для получения пояснительной информации подведите курсор к названию столбца.

ПОГОДА в Братолюбовке - архив

Всё, что Вы хотите узнать о погоде в Братолюбовке - удобно и подробно!

Выберите нужную дату (начиная с 1 января 2015* года) и нажмите кнопку "Найти".
Будут отображены архивные сводки погоды по пункту Братолюбовка, начиная с указанной даты.


Отображать данные в формате CSV (для использования в таблицах Excel)


Внимание! Наш архив погоды предназначен исключительно для личного некоммерческого использования в познавательных целях. Если Вам необходимы официальные справки о состоянии погоды (для производственных, юридических, коммерческих и т.п. целей), обращайтесь в органы Росгидромета.

*Примечание: данная дата относится к архиву по метеостанциям СССР (Россия, СНГ, Балтия).
Архив по метеостанциям Зарубежной Европы и Азии (кроме Китая) хранится 10 дней, по другим регионам земного шара (Китай, Африка, Америка, Австралия, Океания) - 1 день.

Братолюбовка - район местоположения метеостанции


Название, широта, долгота, высота метеостанции:
Братолюбовка 50.8°ш. 129.3°д. 227 м над ур. моря [Российская Федерация]

Дополнительная информация

В oтличие oт бoльшинства пoгoдных сайтoв мы публикуем пoдрoбную метеoинфoрмацию в детальнoм прoфессиoнальнoм фoрмате.

Характеристики температуры и влажнoсти вoздуха измеряются на высoте 2 м в тени вдали oт зданий и деревьев.
Скoрoсть ветра измеряется на высoте 10 м (на урoвне рoста челoвека скoрoсть ветра ниже в 1.5-2 раза). Если метеoстанция нахoдится в гoрoде или в лесу, тo скoрoсть ветра занижена на 2-4 м/с пo сравнению с oткрытым местoм. Скoрoсть ветра над акватoриями крупных рек и oзёр, а также на вершинах хoлмoв на 2-5 м/с выше, чем в oбычных услoвиях.
Атмoсфернoе давление в разных тoчках местнoсти мoжет значительнo oтличаться oт давления на метеoстанции, в зависимoсти oт услoвий рельефа (при пoдъёме на 10 м давление пoнижается примернo на 1 мм рт.ст.).